STARLINK-1936, 46772

Orbit data source: Space-Track

STARLINK-1936, 46772 is a payload satellite owned by SpaceX/Seattle (US) in LEO that was launched on Sat, 24 Oct 2020 UTC via an FALCON 9 launch vehicle from the Air Force Eastern Test Range (AFETR). Payloads include a variety of satellites, spacecraft, and rockets equipped with specific instruments for various scientific and technological missions. These include communications satellites like Starlink; space stations such as the ISS; scientific satellites like the Hubble; Earth observation satellites from companies like Planet Labs, Umbra, and HawkEye 360; GPS; miniature CubeSats for education and research; and military/defense satellites.

Not visible in the next 10 days
STARLINK-1936 details
Identifier
46772, 2020-074AK
Orbit
LEO
Last TLE update3 days ago
Origin
Flag of USSpaceX/Seattle (US)
ManufacturerSpaceX/Seattle
MissionPartially operational Commercial Communications
Bus & MotorSTARLINK, Unknown motor
Mass260 kg wet, ~248 kg dry
Launch date (UTC)
2020-10-24 (4 years ago)
Launch vehicle
FALCON 9
Launch site
Air Force Eastern Test Range (AFETR)
Object type
Payload
Rocket body
Debris
Shape & HBRBox + 1 Pan, 8.86 m
Radar Cross Section13.562 m², Large (>1 m²)

Expand to show TLE details & history

TLE from 3 days ago
0 STARLINK-1936
1 46772U 20074AK  25022.36851112  .00981379  49801-3  16398-2 0  9998
2 46772  53.0479 356.8137 0004432 134.9351  20.4498 16.02379826234851
Epoch: 2025-01-22T08:50Z
Definitive object data (Epoch: 2025-01-22T08:50:39.36Z)
Latitude19.46943°
Longitude-93.14421°
Altitude265.503 km
Speed7.752 km/s
True Right ascension10h 45m 55s
True Declination19° 21' 13"
Sunlit
Object was in full shadow at TLE epoch
Visualization TLE readout
Latitude18.76457°
Longitude-110.37168°
Altitude241.949 km
Speed7.766 km/s
Apparent Right ascension09h 02m 54s
Apparent Declination-10° 03' 53"
Sunlit
Object is in full shadow
Visualization observer readout
Local Sidereal Time20:19:09
Azimuth338.984° N
Elevation-58.606°
Doppler factor1
Orbital elements
Apogee altitude271.059 km
Perigee altitude265.167 km
Semi-major axis6,646.25 km
Eccentricity0.0004432
Inclination53.0479°
RAAN356.8137°
Arg. of periapsis134.9351°
True anomaly20.46755°
Mean anomaly20.4498°
Eccentric anomaly20.45868°
Mean motion4.0057 °/min
BSTAR0.0016398
Orbital period89.87 mins
Loading maneuver chart data...

STARLINK-1936 Visibility forecast

Observer location: undefined°, undefined

STARLINK-1936 is not visible in the next 10 days
Span
Click to sort rows by Start time (UTC) header in descending order
Start Az.
Max El. time (UTC)
Max El. Az.
Max El.
End time (UTC)
End Az.
|